GW7299 Weather Reports


time (UTC)temp
C
wind
direction
speed
KPH
gust
KPH
rain 1hr
cm
rain 24hr
cm
rain mn
cm
humidity
%
barometer
mb
20260505095609 16 250 4.8 9.7 0.00 0.00 0.00 75 1001.3
20260505095106 16 137 3.2 8.0 0.00 0.00 0.00 74 1001.6
20260505094602 16 127 11.3 14.5 0.00 0.00 0.00 74 1001.3
20260505094058 16 191 3.2 6.4 0.00 0.00 0.00 75 1001.4
20260505093554 16 241 3.2 6.4 0.00 0.00 0.00 75 1001.3
20260505093052 16 284 1.6 4.8 0.00 0.00 0.00 74 1001.0
20260505092549 16 282 1.6 3.2 0.00 0.00 0.00 74 1001.0
20260505092048 16 243 0.0 4.8 0.00 0.00 0.00 74 1001.0
20260505091544 16 216 0.0 3.2 0.00 0.00 0.00 73 1000.8
20260505091043 16 131 0.0 3.2 0.00 0.00 0.00 73 1000.8
20260505090540 16 29 0.0 3.2 0.00 0.00 0.00 73 1001.1
20260505090038 16 304 0.0 3.2 0.00 0.00 0.00 72 1001.2
20260505085536 16 136 1.6 3.2 0.00 0.00 0.00 73 1001.1
20260505085034 16 161 3.2 3.2 0.00 0.00 0.00 72 1001.3
20260505084531 17 0 0.0 6.4 0.00 0.00 0.00 71 1001.1
20260505084029 16 144 3.2 3.2 0.00 0.00 0.00 71 1001.2
20260505083526 17 167 1.6 4.8 0.00 0.00 0.00 71 1001.0
20260505083023 17 168 1.6 4.8 0.00 0.00 0.00 71 1000.9
20260505082518 17 141 0.0 1.6 0.00 0.00 0.00 71 1001.0
20260505082015 17 134 3.2 4.8 0.00 0.00 0.00 70 1000.9
20260505081512 17 183 4.8 8.0 0.00 0.00 0.00 70 1001.0
20260505081009 17 224 0.0 4.8 0.00 0.00 0.00 70 1000.9
20260505080505 17 224 4.8 6.4 0.00 0.00 0.00 70 1000.8
20260505080001 17 128 0.0 8.0 0.00 0.00 0.00 70 1001.1
20260505075458 17 183 6.4 6.4 0.00 0.00 0.00 70 1001.1
20260505074955 17 227 3.2 12.9 0.00 0.00 0.00 69 1001.1
20260505074452 17 217 3.2 16.1 0.00 0.00 0.00 70 1001.2
20260505073949 17 209 8.0 11.3 0.00 0.00 0.00 69 1001.2
20260505073447 17 203 6.4 11.3 0.00 0.00 0.00 69 1001.2
20260505072944 17 205 6.4 8.0 0.00 0.00 0.00 69 1001.3
20260505072440 17 205 6.4 11.3 0.00 0.00 0.00 69 1001.2
20260505071936 17 191 8.0 14.5 0.00 0.00 0.00 68 1001.4
20260505071432 17 186 9.7 14.5 0.00 0.00 0.00 68 1001.2
20260505070931 17 196 8.0 14.5 0.00 0.00 0.00 68 1001.2
20260505070427 17 199 6.4 12.9 0.00 0.00 0.00 69 1001.1
20260505065922 17 166 6.4 14.5 0.00 0.00 0.00 69 1001.0
20260505065419 17 221 11.3 17.7 0.00 0.00 0.00 69 1001.1
20260505064916 17 204 9.7 19.3 0.00 0.00 0.00 69 1000.8
20260505064413 17 166 9.7 14.5 0.00 0.00 0.00 69 1001.0
20260505063912 17 225 8.0 22.5 0.00 0.00 0.00 69 1000.6
20260505063407 17 185 6.4 17.7 0.00 0.00 0.00 70 1000.9
20260505062904 17 186 6.4 12.9 0.00 0.00 0.00 70 1001.1
20260505062401 17 236 6.4 19.3 0.00 0.00 0.00 70 1001.0
20260505061858 17 141 8.0 17.7 0.00 0.00 0.00 70 1000.9
20260505061356 17 185 11.3 16.1 0.00 0.00 0.00 69 1000.9
20260505060854 17 157 3.2 9.7 0.00 0.00 0.00 70 1001.1
20260505060350 17 160 11.3 22.5 0.00 0.00 0.00 69 1001.2
20260505055846 17 216 4.8 16.1 0.00 0.00 0.00 70 1001.3
20260505055342 17 149 4.8 20.9 0.00 0.00 0.00 69 1001.5
20260505054840 17 167 6.4 14.5 0.00 0.00 0.00 70 1001.9
20260505054337 17 155 6.4 19.3 0.00 0.00 0.00 69 1001.7
20260505053835 17 178 4.8 12.9 0.00 0.00 0.00 69 1001.6
20260505053332 17 227 4.8 16.1 0.00 0.00 0.00 69 1001.5
20260505052828 17 196 6.4 11.3 0.00 0.00 0.00 69 1001.8
20260505052325 17 199 6.4 17.7 0.00 0.00 0.00 69 1001.7
20260505051822 17 186 11.3 11.3 0.00 0.00 0.00 69 1001.8
20260505051320 17 178 4.8 16.1 0.00 0.00 0.00 69 1002.0
20260505050818 17 153 6.4 14.5 0.00 0.00 0.00 69 1002.1
20260505050316 17 181 0.0 14.5 0.00 0.00 0.00 68 1002.2
20260505041746 18 161 1.6 9.7 0.00 0.00 0.00 66 1002.5
20260505041243 17 168 3.2 9.7 0.00 0.00 0.00 66 1002.5
20260505040740 17 223 3.2 8.0 0.00 0.00 0.00 66 1002.3
20260505040238 18 180 4.8 12.9 0.00 0.00 0.00 65 1002.7
20260505035735 18 288 3.2 6.4 0.00 0.00 0.00 66 1002.6
20260505035230 18 207 9.7 12.9 0.00 0.00 0.00 65 1002.6
20260505034728 18 153 9.7 9.7 0.00 0.00 0.00 65 1002.6
20260505034224 18 219 6.4 11.3 0.00 0.00 0.00 65 1002.7
20260505033721 18 173 8.0 8.0 0.00 0.00 0.00 65 1003.0
20260505033219 18 150 1.6 14.5 0.00 0.00 0.00 64 1002.9
20260505032717 18 225 0.0 8.0 0.00 0.00 0.00 64 1003.0
20260505032212 18 81 0.0 12.9 0.00 0.00 0.00 64 1002.9
20260505031710 18 214 6.4 8.0 0.00 0.00 0.00 63 1002.7
20260505031206 18 253 4.8 16.1 0.00 0.00 0.00 63 1002.9
20260505030703 18 186 4.8 6.4 0.00 0.00 0.00 62 1002.5
20260505030159 18 169 3.2 9.7 0.00 0.00 0.00 62 1002.6
20260505025655 18 153 12.9 14.5 0.00 0.00 0.00 61 1002.4
20260505025153 19 157 9.7 17.7 0.00 0.00 0.00 61 1002.3
20260505024651 18 163 14.5 17.7 0.00 0.00 0.00 61 1002.6
20260505024148 19 156 6.4 11.3 0.00 0.00 0.00 61 1002.3
20260505023645 19 148 8.0 12.9 0.00 0.00 0.00 61 1002.2
20260505023143 19 161 3.2 9.7 0.00 0.00 0.00 61 1002.4
20260505022640 19 163 4.8 11.3 0.00 0.00 0.00 60 1002.1
20260505022137 19 211 6.4 11.3 0.00 0.00 0.00 60 1002.2
20260505021633 19 151 3.2 17.7 0.00 0.00 0.00 60 1001.8
20260505021130 20 175 1.6 9.7 0.00 0.00 0.00 60 1002.1
20260505020626 20 162 8.0 14.5 0.00 0.00 0.00 59 1002.0
20260505020122 20 163 6.4 14.5 0.00 0.00 0.00 58 1002.1
20260505015619 20 172 3.2 11.3 0.00 0.00 0.00 58 1001.9
20260505015116 20 144 3.2 6.4 0.00 0.00 0.00 58 1001.8
20260505014613 20 223 3.2 12.9 0.00 0.00 0.00 57 1001.8
20260505014110 20 191 4.8 11.3 0.00 0.00 0.00 56 1001.5
20260505013607 20 235 3.2 8.0 0.00 0.00 0.00 56 1001.3
20260505013104 20 147 8.0 9.7 0.00 0.00 0.00 56 1001.3
20260505012602 21 96 3.2 17.7 0.00 0.00 0.00 55 1001.3
20260505012059 21 167 9.7 11.3 0.00 0.00 0.00 55 1001.2
20260505011554 21 163 3.2 17.7 0.00 0.00 0.00 54 1001.4
20260505011052 21 161 3.2 8.0 0.00 0.00 0.00 53 1001.1
20260505010547 21 170 9.7 11.3 0.00 0.00 0.00 53 1001.5
20260505010044 21 211 8.0 8.0 0.00 0.00 0.00 52 1001.4
20260505005540 21 154 8.0 20.9 0.00 0.00 0.00 52 1001.6
20260505005038 22 161 4.8 16.1 0.00 0.00 0.00 51 1001.3
20260505004535 22 165 8.0 12.9 0.00 0.00 0.00 51 1001.0
20260505004031 22 161 8.0 12.9 0.00 0.00 0.00 50 1001.0
20260505003529 22 161 6.4 6.4 0.00 0.00 0.00 52 1001.0
20260505003026 22 174 12.9 14.5 0.00 0.00 0.00 50 1001.3
20260505002526 22 163 6.4 17.7 0.00 0.00 0.00 50 1001.2
20260505002026 22 169 8.0 14.5 0.00 0.00 0.00 50 1001.2
20260505001523 22 251 3.2 11.3 0.00 0.00 0.00 51 1001.1
20260505001020 23 187 6.4 19.3 0.00 0.00 0.00 49 1001.0
20260505000517 23 205 0.0 16.1 0.00 0.00 0.00 48 1001.0
20260505000015 23 183 14.5 17.7 0.00 0.00 0.00 48 1001.0
20260504235511 23 158 8.0 17.7 0.00 0.00 0.00 48 1001.0
20260504235007 23 164 6.4 11.3 0.00 0.00 0.00 47 1000.8
20260504234505 24 228 12.9 17.7 0.00 0.00 0.00 46 1001.0
20260504234002 24 118 4.8 14.5 0.00 0.00 0.00 47 1000.8
20260504233457 25 176 20.9 20.9 0.00 0.00 0.00 45 1000.8
20260504232954 25 186 6.4 8.0 0.00 0.00 0.00 44 1000.8
20260504232451 25 185 14.5 14.5 0.00 0.00 0.00 44 1000.9
20260504231949 25 155 6.4 17.7 0.00 0.00 0.00 46 1001.1
20260504231444 25 190 9.7 17.7 0.00 0.00 0.00 45 1001.1
20260504230941 25 161 9.7 14.5 0.00 0.00 0.00 43 1001.1
20260504230438 25 209 8.0 22.5 0.00 0.00 0.00 42 1001.2
20260504225937 25 229 11.3 27.4 0.00 0.00 0.00 42 1001.1
20260504225433 25 177 22.5 24.1 0.00 0.00 0.00 42 1001.2
20260504224930 25 188 11.3 16.1 0.00 0.00 0.00 45 1001.2
20260504224427 25 187 4.8 17.7 0.00 0.00 0.00 44 1001.1
20260504223924 24 237 14.5 20.9 0.00 0.00 0.00 44 1001.2
20260504223420 25 169 11.3 17.7 0.00 0.00 0.00 44 1001.4
20260504222916 25 127 9.7 16.1 0.00 0.00 0.00 44 1001.1
20260504222413 25 140 3.2 14.5 0.00 0.00 0.00 44 1001.1
20260504221911 25 153 14.5 17.7 0.00 0.00 0.00 44 1001.1
20260504221408 25 141 9.7 14.5 0.00 0.00 0.00 45 1001.1
20260504220905 25 193 11.3 24.1 0.00 0.00 0.00 44 1001.2
20260504220401 25 221 8.0 14.5 0.00 0.00 0.00 42 1001.3
20260504215859 25 222 14.5 17.7 0.00 0.00 0.00 44 1001.3
20260504215355 25 239 14.5 19.3 0.00 0.00 0.00 44 1001.5
20260504214851 25 184 14.5 25.7 0.00 0.00 0.00 45 1001.2
20260504214348 25 169 9.7 16.1 0.00 0.00 0.00 44 1001.4
20260504213845 25 216 20.9 27.4 0.00 0.00 0.00 42 1001.5
20260504213341 25 206 17.7 20.9 0.00 0.00 0.00 41 1001.4
20260504212838 25 213 17.7 30.6 0.00 0.00 0.00 42 1001.5
20260504212334 25 282 9.7 22.5 0.00 0.00 0.00 44 1001.5
20260504211832 25 183 9.7 22.5 0.00 0.00 0.00 44 1001.6
20260504211328 25 196 29.0 30.6 0.00 0.00 0.00 42 1001.5
20260504210826 25 171 6.4 16.1 0.00 0.00 0.00 43 1001.5
20260504210322 25 213 16.1 27.4 0.00 0.00 0.00 44 1001.5
20260504205820 25 225 11.3 27.4 0.00 0.00 0.00 43 1001.8
20260504205317 25 189 14.5 24.1 0.00 0.00 0.00 41 1001.8
20260504204815 25 224 14.5 20.9 0.00 0.00 0.00 44 1001.8
20260504204313 25 206 22.5 27.4 0.00 0.00 0.00 42 1001.8
20260504203813 25 217 24.1 27.4 0.00 0.00 0.00 43 1001.8
20260504203309 25 214 11.3 19.3 0.00 0.00 0.00 45 1002.0
20260504202804 25 171 16.1 22.5 0.00 0.00 0.00 45 1001.9
20260504202304 25 231 14.5 19.3 0.00 0.00 0.00 41 1002.1
20260504201758 25 202 16.1 20.9 0.00 0.00 0.00 43 1002.0
20260504201256 25 192 6.4 17.7 0.00 0.00 0.00 45 1002.0
20260504200753 25 244 12.9 22.5 0.00 0.00 0.00 43 1002.4
20260504200249 25 203 4.8 30.6 0.00 0.00 0.00 45 1002.4
20260504195746 25 169 19.3 25.7 0.00 0.00 0.00 41 1002.3
20260504195242 25 194 8.0 14.5 0.00 0.00 0.00 44 1002.3
20260504194739 25 261 12.9 20.9 0.00 0.00 0.00 41 1002.3
20260504194235 25 205 11.3 20.9 0.00 0.00 0.00 42 1002.3
20260504193731 25 184 9.7 20.9 0.00 0.00 0.00 45 1002.5
20260504193229 25 204 14.5 25.7 0.00 0.00 0.00 42 1002.5
20260504192727 25 171 8.0 17.7 0.00 0.00 0.00 42 1002.7
20260504192225 25 228 9.7 19.3 0.00 0.00 0.00 42 1002.6
20260504191724 25 176 14.5 17.7 0.00 0.00 0.00 44 1002.7
20260504191220 25 168 12.9 16.1 0.00 0.00 0.00 46 1002.6
20260504190715 25 236 19.3 25.7 0.00 0.00 0.00 44 1002.9
20260504190212 25 220 24.1 29.0 0.00 0.00 0.00 43 1002.9
20260504185709 25 221 16.1 20.9 0.00 0.00 0.00 43 1002.7
20260504185205 24 154 3.2 24.1 0.00 0.00 0.00 46 1002.9
20260504184701 24 208 9.7 24.1 0.00 0.00 0.00 43 1002.9
20260504184156 24 187 17.7 27.4 0.00 0.00 0.00 44 1003.1
20260504183653 24 156 12.9 29.0 0.00 0.00 0.00 44 1002.7
20260504183151 24 221 12.9 27.4 0.00 0.00 0.00 44 1003.0
20260504182648 24 181 8.0 29.0 0.00 0.00 0.00 44 1003.0
20260504182146 24 196 14.5 24.1 0.00 0.00 0.00 43 1003.1
20260504181643 23 232 11.3 29.0 0.00 0.00 0.00 43 1003.0
20260504181141 23 203 9.7 33.8 0.00 0.00 0.00 45 1002.9
20260504180640 23 217 16.1 25.7 0.00 0.00 0.00 47 1003.1
20260504180138 23 192 17.7 25.7 0.00 0.00 0.00 42 1003.0
20260504175635 24 244 9.7 14.5 0.00 0.00 0.00 45 1003.1
20260504175131 23 192 12.9 25.7 0.00 0.00 0.00 47 1003.2
20260504174630 23 202 14.5 27.4 0.00 0.00 0.00 47 1003.3
20260504174126 23 233 12.9 17.7 0.00 0.00 0.00 47 1003.3
20260504173623 23 204 8.0 29.0 0.00 0.00 0.00 44 1003.4
20260504173121 23 193 20.9 24.1 0.00 0.00 0.00 45 1003.3
20260504172617 23 221 8.0 20.9 0.00 0.00 0.00 48 1003.2
20260504172114 23 268 9.7 20.9 0.00 0.00 0.00 47 1003.2
20260504171610 23 167 14.5 24.1 0.00 0.00 0.00 47 1003.4
20260504171107 23 185 11.3 20.9 0.00 0.00 0.00 47 1003.5
20260504170602 23 249 16.1 20.9 0.00 0.00 0.00 48 1003.5
20260504150946 20 222 14.5 19.3 0.00 0.00 0.00 53 1004.8
20260504150443 20 203 16.1 22.5 0.00 0.00 0.00 53 1004.8
20260504140910 18 197 9.7 17.7 0.00 0.00 0.00 58 1005.2
20260504140406 18 200 11.3 20.9 0.00 0.00 0.00 57 1005.2
20260504130331 16 221 8.0 9.7 0.00 0.00 0.00 62 1005.3
20260504120254 14 217 4.8 6.4 0.00 0.00 0.00 71 1005.4
20260504110218 13 234 0.0 4.8 0.00 0.00 0.00 75 1005.2
20260504100142 13 248 0.0 3.2 0.00 0.00 0.00 75 1005.1